owner,sensor,date,latitude,longitude,sea_surface_height_above_sea_level,qcFlag 
TCOON,ioos:station:TCOON:003:1,2017-06-01T00:18:00Z,26.8015,-97.4706,1.388,1111122 
TCOON,ioos:station:TCOON:003:1,2017-06-01T01:18:00Z,26.8015,-97.4706,1.405,1111122 
TCOON,ioos:station:TCOON:003:1,2017-06-01T02:18:00Z,26.8015,-97.4706,1.371,1111122 
TCOON,ioos:station:TCOON:003:1,2017-06-01T03:18:00Z,26.8015,-97.4706,1.333,1111122 
TCOON,ioos:station:TCOON:003:1,2017-06-01T04:18:00Z,26.8015,-97.4706,1.326,1111122 
TCOON,ioos:station:TCOON:003:1,2017-06-01T05:18:00Z,26.8015,-97.4706,1.331,1111122 
TCOON,ioos:station:TCOON:003:1,2017-06-01T06:18:00Z,26.8015,-97.4706,1.337,1111122 
TCOON,ioos:station:TCOON:003:1,2017-06-01T07:18:00Z,26.8015,-97.4706,1.294,1111122 
TCOON,ioos:station:TCOON:003:1,2017-06-01T08:18:00Z,26.8015,-97.4706,1.306,1111122 
TCOON,ioos:station:TCOON:003:1,2017-06-01T09:18:00Z,26.8015,-97.4706,1.296,1111122 
TCOON,ioos:station:TCOON:003:1,2017-06-01T10:18:00Z,26.8015,-97.4706,1.295,1111122 
TCOON,ioos:station:TCOON:003:1,2017-06-01T11:18:00Z,26.8015,-97.4706,1.311,1111122 
TCOON,ioos:station:TCOON:003:1,2017-06-01T12:18:00Z,26.8015,-97.4706,1.328,1111122 
TCOON,ioos:station:TCOON:003:1,2017-06-01T13:18:00Z,26.8015,-97.4706,1.327,1111122 
TCOON,ioos:station:TCOON:003:1,2017-06-01T14:18:00Z,26.8015,-97.4706,1.328,1111122 
TCOON,ioos:station:TCOON:003:1,2017-06-01T15:18:00Z,26.8015,-97.4706,1.332,1111122 
TCOON,ioos:station:TCOON:003:1,2017-06-01T16:18:00Z,26.8015,-97.4706,1.335,1111122 
TCOON,ioos:station:TCOON:003:1,2017-06-01T17:18:00Z,26.8015,-97.4706,1.336,1111122 
TCOON,ioos:station:TCOON:003:1,2017-06-01T18:18:00Z,26.8015,-97.4706,1.337,1111122 
TCOON,ioos:station:TCOON:003:1,2017-06-01T19:18:00Z,26.8015,-97.4706,1.343,1111122 
TCOON,ioos:station:TCOON:003:1,2017-06-01T20:18:00Z,26.8015,-97.4706,1.353,1111122 
TCOON,ioos:station:TCOON:003:1,2017-06-01T21:18:00Z,26.8015,-97.4706,1.359,1111122 
TCOON,ioos:station:TCOON:003:1,2017-06-01T22:18:00Z,26.8015,-97.4706,1.363,1111122 
TCOON,ioos:station:TCOON:003:1,2017-06-01T23:18:00Z,26.8015,-97.4706,1.365,1111122 
TCOON,ioos:station:TCOON:003:1,2017-06-02T00:18:00Z,26.8015,-97.4706,1.363,1111122 
TCOON,ioos:station:TCOON:003:1,2017-06-02T01:18:00Z,26.8015,-97.4706,1.361,1111122 
TCOON,ioos:station:TCOON:003:1,2017-06-02T02:18:00Z,26.8015,-97.4706,1.353,1111122 
TCOON,ioos:station:TCOON:003:1,2017-06-02T03:18:00Z,26.8015,-97.4706,1.356,1111122 
TCOON,ioos:station:TCOON:003:1,2017-06-02T04:18:00Z,26.8015,-97.4706,1.347,1111122 
TCOON,ioos:station:TCOON:003:1,2017-06-02T05:18:00Z,26.8015,-97.4706,1.336,1111122 
TCOON,ioos:station:TCOON:003:1,2017-06-02T06:18:00Z,26.8015,-97.4706,1.327,1111122 
TCOON,ioos:station:TCOON:003:1,2017-06-02T07:18:00Z,26.8015,-97.4706,1.318,1111122 
TCOON,ioos:station:TCOON:003:1,2017-06-02T08:18:00Z,26.8015,-97.4706,1.3,1111122 
TCOON,ioos:station:TCOON:003:1,2017-06-02T09:18:00Z,26.8015,-97.4706,1.292,1111122 
TCOON,ioos:station:TCOON:003:1,2017-06-02T10:18:00Z,26.8015,-97.4706,1.285,1111122 
TCOON,ioos:station:TCOON:003:1,2017-06-02T11:18:00Z,26.8015,-97.4706,1.28,1111122 
TCOON,ioos:station:TCOON:003:1,2017-06-02T12:18:00Z,26.8015,-97.4706,1.277,1111122 
TCOON,ioos:station:TCOON:003:1,2017-06-02T13:18:00Z,26.8015,-97.4706,1.274,1111122 
TCOON,ioos:station:TCOON:003:1,2017-06-02T14:18:00Z,26.8015,-97.4706,1.269,1111122 
TCOON,ioos:station:TCOON:003:1,2017-06-02T15:18:00Z,26.8015,-97.4706,1.261,1111122 
TCOON,ioos:station:TCOON:003:1,2017-06-02T16:18:00Z,26.8015,-97.4706,1.265,1111122 
TCOON,ioos:station:TCOON:003:1,2017-06-02T17:18:00Z,26.8015,-97.4706,1.272,1111122 
TCOON,ioos:station:TCOON:003:1,2017-06-02T18:18:00Z,26.8015,-97.4706,1.279,1111122 
TCOON,ioos:station:TCOON:003:1,2017-06-02T19:18:00Z,26.8015,-97.4706,1.276,1111122 
TCOON,ioos:station:TCOON:003:1,2017-06-02T20:18:00Z,26.8015,-97.4706,1.277,1111122 
TCOON,ioos:station:TCOON:003:1,2017-06-02T21:18:00Z,26.8015,-97.4706,1.29,1111122 
TCOON,ioos:station:TCOON:003:1,2017-06-02T22:18:00Z,26.8015,-97.4706,1.29,1111122 
TCOON,ioos:station:TCOON:003:1,2017-06-02T23:18:00Z,26.8015,-97.4706,1.303,1111122 
TCOON,ioos:station:TCOON:003:1,2017-06-03T00:18:00Z,26.8015,-97.4706,1.318,1111122 
TCOON,ioos:station:TCOON:003:1,2017-06-03T01:18:00Z,26.8015,-97.4706,1.32,1111122 
TCOON,ioos:station:TCOON:003:1,2017-06-03T02:18:00Z,26.8015,-97.4706,1.311,1111122 
TCOON,ioos:station:TCOON:003:1,2017-06-03T03:12:00Z,26.8015,-97.4706,1.295,1111122 
TCOON,ioos:station:TCOON:003:1,2017-06-03T04:18:00Z,26.8015,-97.4706,1.286,1111122 
TCOON,ioos:station:TCOON:003:1,2017-06-03T05:18:00Z,26.8015,-97.4706,1.284,1111122 
TCOON,ioos:station:TCOON:003:1,2017-06-03T06:18:00Z,26.8015,-97.4706,1.281,1111122 
TCOON,ioos:station:TCOON:003:1,2017-06-03T07:18:00Z,26.8015,-97.4706,1.271,1111122 
TCOON,ioos:station:TCOON:003:1,2017-06-03T08:18:00Z,26.8015,-97.4706,1.262,1111122 
TCOON,ioos:station:TCOON:003:1,2017-06-03T09:18:00Z,26.8015,-97.4706,1.263,1111122 
TCOON,ioos:station:TCOON:003:1,2017-06-03T10:18:00Z,26.8015,-97.4706,1.266,1111122 
TCOON,ioos:station:TCOON:003:1,2017-06-03T11:18:00Z,26.8015,-97.4706,1.254,1111122 
TCOON,ioos:station:TCOON:003:1,2017-06-03T12:18:00Z,26.8015,-97.4706,1.239,1111122 
TCOON,ioos:station:TCOON:003:1,2017-06-03T13:18:00Z,26.8015,-97.4706,1.23,1111122 
TCOON,ioos:station:TCOON:003:1,2017-06-03T14:18:00Z,26.8015,-97.4706,1.222,1111122 
TCOON,ioos:station:TCOON:003:1,2017-06-03T15:18:00Z,26.8015,-97.4706,1.223,1111122 
TCOON,ioos:station:TCOON:003:1,2017-06-03T16:18:00Z,26.8015,-97.4706,1.233,1111122 
TCOON,ioos:station:TCOON:003:1,2017-06-03T17:18:00Z,26.8015,-97.4706,1.244,1111122 
TCOON,ioos:station:TCOON:003:1,2017-06-03T18:18:00Z,26.8015,-97.4706,1.259,1111122 
TCOON,ioos:station:TCOON:003:1,2017-06-03T19:18:00Z,26.8015,-97.4706,1.263,1111122 
TCOON,ioos:station:TCOON:003:1,2017-06-03T20:18:00Z,26.8015,-97.4706,1.267,1111122 
TCOON,ioos:station:TCOON:003:1,2017-06-03T21:18:00Z,26.8015,-97.4706,1.264,1111122 
TCOON,ioos:station:TCOON:003:1,2017-06-03T22:18:00Z,26.8015,-97.4706,1.259,1111122 
TCOON,ioos:station:TCOON:003:1,2017-06-03T23:18:00Z,26.8015,-97.4706,1.254,1111122 
TCOON,ioos:station:TCOON:003:1,2017-06-04T00:18:00Z,26.8015,-97.4706,1.248,1111122 
TCOON,ioos:station:TCOON:003:1,2017-06-04T01:18:00Z,26.8015,-97.4706,1.26,1111122 
TCOON,ioos:station:TCOON:003:1,2017-06-04T02:18:00Z,26.8015,-97.4706,1.306,1111122 
TCOON,ioos:station:TCOON:003:1,2017-06-04T03:18:00Z,26.8015,-97.4706,1.342,1111122 
TCOON,ioos:station:TCOON:003:1,2017-06-04T04:18:00Z,26.8015,-97.4706,1.329,1111122 
TCOON,ioos:station:TCOON:003:1,2017-06-04T05:18:00Z,26.8015,-97.4706,1.279,1111122 
TCOON,ioos:station:TCOON:003:1,2017-06-04T06:18:00Z,26.8015,-97.4706,1.24,1111122 
TCOON,ioos:station:TCOON:003:1,2017-06-04T07:18:00Z,26.8015,-97.4706,1.233,1111122 
TCOON,ioos:station:TCOON:003:1,2017-06-04T08:18:00Z,26.8015,-97.4706,1.241,1111122 
TCOON,ioos:station:TCOON:003:1,2017-06-04T09:18:00Z,26.8015,-97.4706,1.237,1111122 
TCOON,ioos:station:TCOON:003:1,2017-06-04T10:18:00Z,26.8015,-97.4706,1.228,1111122 
TCOON,ioos:station:TCOON:003:1,2017-06-04T11:18:00Z,26.8015,-97.4706,1.232,1111122 
TCOON,ioos:station:TCOON:003:1,2017-06-04T12:18:00Z,26.8015,-97.4706,1.238,1111122 
TCOON,ioos:station:TCOON:003:1,2017-06-04T13:18:00Z,26.8015,-97.4706,1.236,1111122 
TCOON,ioos:station:TCOON:003:1,2017-06-04T14:18:00Z,26.8015,-97.4706,1.241,1111122 
TCOON,ioos:station:TCOON:003:1,2017-06-04T15:18:00Z,26.8015,-97.4706,1.251,1111122 
TCOON,ioos:station:TCOON:003:1,2017-06-04T16:18:00Z,26.8015,-97.4706,1.252,1111122 
TCOON,ioos:station:TCOON:003:1,2017-06-04T17:18:00Z,26.8015,-97.4706,1.258,1111122 
TCOON,ioos:station:TCOON:003:1,2017-06-04T18:18:00Z,26.8015,-97.4706,1.256,1111122 
TCOON,ioos:station:TCOON:003:1,2017-06-04T19:18:00Z,26.8015,-97.4706,1.26,1111122 
TCOON,ioos:station:TCOON:003:1,2017-06-04T20:18:00Z,26.8015,-97.4706,1.28,1111122 
TCOON,ioos:station:TCOON:003:1,2017-06-04T21:18:00Z,26.8015,-97.4706,1.303,1111122 
TCOON,ioos:station:TCOON:003:1,2017-06-04T22:18:00Z,26.8015,-97.4706,1.3,1111122 
TCOON,ioos:station:TCOON:003:1,2017-06-04T23:18:00Z,26.8015,-97.4706,1.304,1111122 
TCOON,ioos:station:TCOON:003:1,2017-06-05T00:18:00Z,26.8015,-97.4706,1.301,1111122 
TCOON,ioos:station:TCOON:003:1,2017-06-05T01:18:00Z,26.8015,-97.4706,1.294,1111122 
TCOON,ioos:station:TCOON:003:1,2017-06-05T02:18:00Z,26.8015,-97.4706,1.291,1111122 
TCOON,ioos:station:TCOON:003:1,2017-06-05T03:18:00Z,26.8015,-97.4706,1.304,1111122 
TCOON,ioos:station:TCOON:003:1,2017-06-05T04:18:00Z,26.8015,-97.4706,1.305,1111122 
TCOON,ioos:station:TCOON:003:1,2017-06-05T05:18:00Z,26.8015,-97.4706,1.281,1111122 
TCOON,ioos:station:TCOON:003:1,2017-06-05T06:18:00Z,26.8015,-97.4706,1.288,1111122 
TCOON,ioos:station:TCOON:003:1,2017-06-05T07:18:00Z,26.8015,-97.4706,1.295,1111122 
TCOON,ioos:station:TCOON:003:1,2017-06-05T08:18:00Z,26.8015,-97.4706,1.31,1111122 
TCOON,ioos:station:TCOON:003:1,2017-06-05T09:18:00Z,26.8015,-97.4706,1.319,1111122 
TCOON,ioos:station:TCOON:003:1,2017-06-05T10:18:00Z,26.8015,-97.4706,1.306,1111122 
TCOON,ioos:station:TCOON:003:1,2017-06-05T11:18:00Z,26.8015,-97.4706,1.287,1111122 
TCOON,ioos:station:TCOON:003:1,2017-06-05T12:18:00Z,26.8015,-97.4706,1.279,1111122 
TCOON,ioos:station:TCOON:003:1,2017-06-05T13:18:00Z,26.8015,-97.4706,1.28,1111122 
TCOON,ioos:station:TCOON:003:1,2017-06-05T14:18:00Z,26.8015,-97.4706,1.282,1111122 
TCOON,ioos:station:TCOON:003:1,2017-06-05T15:18:00Z,26.8015,-97.4706,1.273,1111122 
TCOON,ioos:station:TCOON:003:1,2017-06-05T16:18:00Z,26.8015,-97.4706,1.258,1111122 
TCOON,ioos:station:TCOON:003:1,2017-06-05T17:18:00Z,26.8015,-97.4706,1.23,1111122 
TCOON,ioos:station:TCOON:003:1,2017-06-05T18:18:00Z,26.8015,-97.4706,1.227,1111122 
TCOON,ioos:station:TCOON:003:1,2017-06-05T19:18:00Z,26.8015,-97.4706,1.236,1111122 
TCOON,ioos:station:TCOON:003:1,2017-06-05T20:18:00Z,26.8015,-97.4706,1.253,1111122 
TCOON,ioos:station:TCOON:003:1,2017-06-05T21:18:00Z,26.8015,-97.4706,1.254,1111122 
TCOON,ioos:station:TCOON:003:1,2017-06-05T22:18:00Z,26.8015,-97.4706,1.246,1111122 
TCOON,ioos:station:TCOON:003:1,2017-06-05T23:18:00Z,26.8015,-97.4706,1.251,1111122 
TCOON,ioos:station:TCOON:003:1,2017-06-06T00:18:00Z,26.8015,-97.4706,1.257,1111122 
TCOON,ioos:station:TCOON:003:1,2017-06-06T01:18:00Z,26.8015,-97.4706,1.251,1111122 
TCOON,ioos:station:TCOON:003:1,2017-06-06T02:18:00Z,26.8015,-97.4706,1.258,1111122 
TCOON,ioos:station:TCOON:003:1,2017-06-06T03:18:00Z,26.8015,-97.4706,1.274,1111122 
TCOON,ioos:station:TCOON:003:1,2017-06-06T04:18:00Z,26.8015,-97.4706,1.258,1111122 
TCOON,ioos:station:TCOON:003:1,2017-06-06T05:18:00Z,26.8015,-97.4706,1.236,1111122 
TCOON,ioos:station:TCOON:003:1,2017-06-06T06:18:00Z,26.8015,-97.4706,1.218,1111122 
TCOON,ioos:station:TCOON:003:1,2017-06-06T07:18:00Z,26.8015,-97.4706,1.216,1111122 
TCOON,ioos:station:TCOON:003:1,2017-06-06T08:18:00Z,26.8015,-97.4706,1.22,1111122 
TCOON,ioos:station:TCOON:003:1,2017-06-06T09:18:00Z,26.8015,-97.4706,1.228,1111122 
TCOON,ioos:station:TCOON:003:1,2017-06-06T10:18:00Z,26.8015,-97.4706,1.23,1111122 
TCOON,ioos:station:TCOON:003:1,2017-06-06T11:18:00Z,26.8015,-97.4706,1.221,1111122 
TCOON,ioos:station:TCOON:003:1,2017-06-06T12:18:00Z,26.8015,-97.4706,1.211,1111122 
TCOON,ioos:station:TCOON:003:1,2017-06-06T13:18:00Z,26.8015,-97.4706,1.2,1111122 
TCOON,ioos:station:TCOON:003:1,2017-06-06T14:18:00Z,26.8015,-97.4706,1.194,1111122 
TCOON,ioos:station:TCOON:003:1,2017-06-06T15:18:00Z,26.8015,-97.4706,1.193,1111122 
TCOON,ioos:station:TCOON:003:1,2017-06-06T16:18:00Z,26.8015,-97.4706,1.2,1111122 
TCOON,ioos:station:TCOON:003:1,2017-06-06T17:18:00Z,26.8015,-97.4706,1.206,1111122 
TCOON,ioos:station:TCOON:003:1,2017-06-06T18:18:00Z,26.8015,-97.4706,1.2,1111122 
TCOON,ioos:station:TCOON:003:1,2017-06-06T19:18:00Z,26.8015,-97.4706,1.191,1111122 
TCOON,ioos:station:TCOON:003:1,2017-06-06T20:18:00Z,26.8015,-97.4706,1.195,1111122 
TCOON,ioos:station:TCOON:003:1,2017-06-06T21:18:00Z,26.8015,-97.4706,1.213,1111122 
TCOON,ioos:station:TCOON:003:1,2017-06-06T22:18:00Z,26.8015,-97.4706,1.234,1111122 
TCOON,ioos:station:TCOON:003:1,2017-06-06T23:18:00Z,26.8015,-97.4706,1.233,1111122 
TCOON,ioos:station:TCOON:003:1,2017-06-07T00:18:00Z,26.8015,-97.4706,1.233,1111122 
TCOON,ioos:station:TCOON:003:1,2017-06-07T01:18:00Z,26.8015,-97.4706,1.233,1111122 
TCOON,ioos:station:TCOON:003:1,2017-06-07T02:18:00Z,26.8015,-97.4706,1.227,1111122 
TCOON,ioos:station:TCOON:003:1,2017-06-07T03:18:00Z,26.8015,-97.4706,1.221,1111122 
TCOON,ioos:station:TCOON:003:1,2017-06-07T04:18:00Z,26.8015,-97.4706,1.214,1111122 
TCOON,ioos:station:TCOON:003:1,2017-06-07T05:18:00Z,26.8015,-97.4706,1.211,1111122 
TCOON,ioos:station:TCOON:003:1,2017-06-07T06:18:00Z,26.8015,-97.4706,1.197,1111122 
TCOON,ioos:station:TCOON:003:1,2017-06-07T07:18:00Z,26.8015,-97.4706,1.192,1111122 
TCOON,ioos:station:TCOON:003:1,2017-06-07T08:18:00Z,26.8015,-97.4706,1.19,1111122 
TCOON,ioos:station:TCOON:003:1,2017-06-07T09:18:00Z,26.8015,-97.4706,1.191,1111122 
TCOON,ioos:station:TCOON:003:1,2017-06-07T10:18:00Z,26.8015,-97.4706,1.2,1111122 
TCOON,ioos:station:TCOON:003:1,2017-06-07T11:18:00Z,26.8015,-97.4706,1.197,1111122 
TCOON,ioos:station:TCOON:003:1,2017-06-07T12:18:00Z,26.8015,-97.4706,1.201,1111122 
TCOON,ioos:station:TCOON:003:1,2017-06-07T13:18:00Z,26.8015,-97.4706,1.202,1111122 
TCOON,ioos:station:TCOON:003:1,2017-06-07T14:18:00Z,26.8015,-97.4706,1.192,1111122 
TCOON,ioos:station:TCOON:003:1,2017-06-07T15:18:00Z,26.8015,-97.4706,1.194,1111122 
TCOON,ioos:station:TCOON:003:1,2017-06-08T16:18:00Z,26.8015,-97.4706,1.223,1111122 
TCOON,ioos:station:TCOON:003:1,2017-06-08T17:18:00Z,26.8015,-97.4706,1.23,1111122 
TCOON,ioos:station:TCOON:003:1,2017-06-08T18:18:00Z,26.8015,-97.4706,1.237,1111122 
TCOON,ioos:station:TCOON:003:1,2017-06-08T19:18:00Z,26.8015,-97.4706,1.242,1111122 
TCOON,ioos:station:TCOON:003:1,2017-06-08T20:18:00Z,26.8015,-97.4706,1.248,1111122 
TCOON,ioos:station:TCOON:003:1,2017-06-08T21:18:00Z,26.8015,-97.4706,1.253,1111122 
TCOON,ioos:station:TCOON:003:1,2017-06-08T22:18:00Z,26.8015,-97.4706,1.258,1111122 
TCOON,ioos:station:TCOON:003:1,2017-06-08T23:18:00Z,26.8015,-97.4706,1.26,1111122 
TCOON,ioos:station:TCOON:003:1,2017-06-09T00:18:00Z,26.8015,-97.4706,1.259,1111122 
TCOON,ioos:station:TCOON:003:1,2017-06-09T01:18:00Z,26.8015,-97.4706,1.26,1111122 
TCOON,ioos:station:TCOON:003:1,2017-06-09T02:18:00Z,26.8015,-97.4706,1.257,1111122 
TCOON,ioos:station:TCOON:003:1,2017-06-09T03:18:00Z,26.8015,-97.4706,1.263,1111122 
TCOON,ioos:station:TCOON:003:1,2017-06-09T04:18:00Z,26.8015,-97.4706,1.27,1111122 
TCOON,ioos:station:TCOON:003:1,2017-06-09T05:18:00Z,26.8015,-97.4706,1.274,1111122 
TCOON,ioos:station:TCOON:003:1,2017-06-09T06:18:00Z,26.8015,-97.4706,1.287,1111122 
TCOON,ioos:station:TCOON:003:1,2017-06-09T07:18:00Z,26.8015,-97.4706,1.294,1111122 
TCOON,ioos:station:TCOON:003:1,2017-06-09T08:18:00Z,26.8015,-97.4706,1.297,1111122 
TCOON,ioos:station:TCOON:003:1,2017-06-09T09:18:00Z,26.8015,-97.4706,1.298,1111122 
TCOON,ioos:station:TCOON:003:1,2017-06-09T10:18:00Z,26.8015,-97.4706,1.267,1111122 
TCOON,ioos:station:TCOON:003:1,2017-06-09T11:18:00Z,26.8015,-97.4706,1.241,1111122 
TCOON,ioos:station:TCOON:003:1,2017-06-09T12:18:00Z,26.8015,-97.4706,1.233,1111122 
TCOON,ioos:station:TCOON:003:1,2017-06-09T13:18:00Z,26.8015,-97.4706,1.239,1111122 
TCOON,ioos:station:TCOON:003:1,2017-06-09T14:18:00Z,26.8015,-97.4706,1.255,1111122 
TCOON,ioos:station:TCOON:003:1,2017-06-09T15:18:00Z,26.8015,-97.4706,1.282,1111122 
TCOON,ioos:station:TCOON:003:1,2017-06-09T16:18:00Z,26.8015,-97.4706,1.288,1111122 
TCOON,ioos:station:TCOON:003:1,2017-06-09T17:18:00Z,26.8015,-97.4706,1.278,1111122 
TCOON,ioos:station:TCOON:003:1,2017-06-09T18:18:00Z,26.8015,-97.4706,1.279,1111122 
TCOON,ioos:station:TCOON:003:1,2017-06-09T19:18:00Z,26.8015,-97.4706,1.287,1111122 
TCOON,ioos:station:TCOON:003:1,2017-06-09T20:18:00Z,26.8015,-97.4706,1.299,1111122 
TCOON,ioos:station:TCOON:003:1,2017-06-09T21:18:00Z,26.8015,-97.4706,1.311,1111122 
TCOON,ioos:station:TCOON:003:1,2017-06-09T22:18:00Z,26.8015,-97.4706,1.318,1111122 
TCOON,ioos:station:TCOON:003:1,2017-06-09T23:18:00Z,26.8015,-97.4706,1.324,1111122 
TCOON,ioos:station:TCOON:003:1,2017-06-10T00:18:00Z,26.8015,-97.4706,1.331,1111122 
TCOON,ioos:station:TCOON:003:1,2017-06-10T01:18:00Z,26.8015,-97.4706,1.338,1111122 
TCOON,ioos:station:TCOON:003:1,2017-06-10T02:18:00Z,26.8015,-97.4706,1.343,1111122 
TCOON,ioos:station:TCOON:003:1,2017-06-10T03:18:00Z,26.8015,-97.4706,1.341,1111122 
TCOON,ioos:station:TCOON:003:1,2017-06-10T04:18:00Z,26.8015,-97.4706,1.328,1111122 
TCOON,ioos:station:TCOON:003:1,2017-06-10T05:18:00Z,26.8015,-97.4706,1.316,1111122 
TCOON,ioos:station:TCOON:003:1,2017-06-10T06:18:00Z,26.8015,-97.4706,1.314,1111122 
TCOON,ioos:station:TCOON:003:1,2017-06-10T07:18:00Z,26.8015,-97.4706,1.312,1111122 
TCOON,ioos:station:TCOON:003:1,2017-06-10T08:18:00Z,26.8015,-97.4706,1.311,1111122 
TCOON,ioos:station:TCOON:003:1,2017-06-10T09:18:00Z,26.8015,-97.4706,1.308,1111122 
TCOON,ioos:station:TCOON:003:1,2017-06-10T10:18:00Z,26.8015,-97.4706,1.308,1111122 
TCOON,ioos:station:TCOON:003:1,2017-06-10T11:18:00Z,26.8015,-97.4706,1.311,1111122 
TCOON,ioos:station:TCOON:003:1,2017-06-10T12:18:00Z,26.8015,-97.4706,1.318,1111122 
TCOON,ioos:station:TCOON:003:1,2017-06-10T22:18:00Z,26.8015,-97.4706,1.414,1111122 
TCOON,ioos:station:TCOON:003:1,2017-06-10T23:18:00Z,26.8015,-97.4706,1.422,1111122 
TCOON,ioos:station:TCOON:003:1,2017-06-11T00:18:00Z,26.8015,-97.4706,1.428,1111122 
TCOON,ioos:station:TCOON:003:1,2017-06-11T01:18:00Z,26.8015,-97.4706,1.432,1111122 
TCOON,ioos:station:TCOON:003:1,2017-06-11T02:18:00Z,26.8015,-97.4706,1.429,1111122 
TCOON,ioos:station:TCOON:003:1,2017-06-11T03:18:00Z,26.8015,-97.4706,1.436,1111122 
TCOON,ioos:station:TCOON:003:1,2017-06-11T04:18:00Z,26.8015,-97.4706,1.433,1111122 
TCOON,ioos:station:TCOON:003:1,2017-06-11T05:18:00Z,26.8015,-97.4706,1.411,1111122 
TCOON,ioos:station:TCOON:003:1,2017-06-11T06:18:00Z,26.8015,-97.4706,1.4,1111122 
TCOON,ioos:station:TCOON:003:1,2017-06-11T07:18:00Z,26.8015,-97.4706,1.392,1111122 
TCOON,ioos:station:TCOON:003:1,2017-06-11T08:18:00Z,26.8015,-97.4706,1.386,1111122 
TCOON,ioos:station:TCOON:003:1,2017-06-11T09:18:00Z,26.8015,-97.4706,1.383,1111122 
TCOON,ioos:station:TCOON:003:1,2017-06-11T10:18:00Z,26.8015,-97.4706,1.368,1111122 
TCOON,ioos:station:TCOON:003:1,2017-06-11T11:18:00Z,26.8015,-97.4706,1.349,1111122 
TCOON,ioos:station:TCOON:003:1,2017-06-11T12:18:00Z,26.8015,-97.4706,1.342,1111122 
TCOON,ioos:station:TCOON:003:1,2017-06-11T13:18:00Z,26.8015,-97.4706,1.35,1111122 
TCOON,ioos:station:TCOON:003:1,2017-06-11T14:18:00Z,26.8015,-97.4706,1.356,1111122 
TCOON,ioos:station:TCOON:003:1,2017-06-11T15:18:00Z,26.8015,-97.4706,1.364,1111122 
TCOON,ioos:station:TCOON:003:1,2017-06-11T16:18:00Z,26.8015,-97.4706,1.368,1111122 
TCOON,ioos:station:TCOON:003:1,2017-06-11T17:18:00Z,26.8015,-97.4706,1.373,1111122 
TCOON,ioos:station:TCOON:003:1,2017-06-11T18:12:00Z,26.8015,-97.4706,1.374,1111122 
TCOON,ioos:station:TCOON:003:1,2017-06-11T19:18:00Z,26.8015,-97.4706,1.37,1111122 
TCOON,ioos:station:TCOON:003:1,2017-06-11T20:18:00Z,26.8015,-97.4706,1.37,1111122 
TCOON,ioos:station:TCOON:003:1,2017-06-11T21:18:00Z,26.8015,-97.4706,1.37,1111122 
TCOON,ioos:station:TCOON:003:1,2017-06-11T22:18:00Z,26.8015,-97.4706,1.371,1111122 
TCOON,ioos:station:TCOON:003:1,2017-06-11T23:18:00Z,26.8015,-97.4706,1.375,1111122 
TCOON,ioos:station:TCOON:003:1,2017-06-12T00:18:00Z,26.8015,-97.4706,1.381,1111122 
TCOON,ioos:station:TCOON:003:1,2017-06-12T01:18:00Z,26.8015,-97.4706,1.387,1111122 
TCOON,ioos:station:TCOON:003:1,2017-06-12T02:18:00Z,26.8015,-97.4706,1.396,1111122 
TCOON,ioos:station:TCOON:003:1,2017-06-12T03:18:00Z,26.8015,-97.4706,1.38,1111122 
TCOON,ioos:station:TCOON:003:1,2017-06-12T04:18:00Z,26.8015,-97.4706,1.379,1111122 
TCOON,ioos:station:TCOON:003:1,2017-06-12T05:18:00Z,26.8015,-97.4706,1.382,1111122 
TCOON,ioos:station:TCOON:003:1,2017-06-12T06:18:00Z,26.8015,-97.4706,1.387,1111122 
TCOON,ioos:station:TCOON:003:1,2017-06-12T07:18:00Z,26.8015,-97.4706,1.399,1111122 
TCOON,ioos:station:TCOON:003:1,2017-06-12T08:18:00Z,26.8015,-97.4706,1.41,1111122 
TCOON,ioos:station:TCOON:003:1,2017-06-12T09:18:00Z,26.8015,-97.4706,1.395,1111122 
TCOON,ioos:station:TCOON:003:1,2017-06-12T10:18:00Z,26.8015,-97.4706,1.346,1111122 
TCOON,ioos:station:TCOON:003:1,2017-06-12T11:18:00Z,26.8015,-97.4706,1.322,1111122 
TCOON,ioos:station:TCOON:003:1,2017-06-12T12:18:00Z,26.8015,-97.4706,1.319,1111122 
TCOON,ioos:station:TCOON:003:1,2017-06-12T13:18:00Z,26.8015,-97.4706,1.325,1111122 
TCOON,ioos:station:TCOON:003:1,2017-06-12T14:18:00Z,26.8015,-97.4706,1.33,1111122 
TCOON,ioos:station:TCOON:003:1,2017-06-12T15:18:00Z,26.8015,-97.4706,1.345,1111122 
TCOON,ioos:station:TCOON:003:1,2017-06-12T16:18:00Z,26.8015,-97.4706,1.354,1111122 
TCOON,ioos:station:TCOON:003:1,2017-06-12T17:18:00Z,26.8015,-97.4706,1.369,1111122 
TCOON,ioos:station:TCOON:003:1,2017-06-12T18:18:00Z,26.8015,-97.4706,1.382,1111122 
TCOON,ioos:station:TCOON:003:1,2017-06-13T15:18:00Z,26.8015,-97.4706,1.376,1111122 
TCOON,ioos:station:TCOON:003:1,2017-06-13T16:18:00Z,26.8015,-97.4706,1.392,1111122 
TCOON,ioos:station:TCOON:003:1,2017-06-13T17:18:00Z,26.8015,-97.4706,1.426,1111122 
TCOON,ioos:station:TCOON:003:1,2017-06-13T18:18:00Z,26.8015,-97.4706,1.44,1111122 
TCOON,ioos:station:TCOON:003:1,2017-06-13T19:18:00Z,26.8015,-97.4706,1.435,1111122 
TCOON,ioos:station:TCOON:003:1,2017-06-13T20:18:00Z,26.8015,-97.4706,1.438,1111122 
TCOON,ioos:station:TCOON:003:1,2017-06-13T21:18:00Z,26.8015,-97.4706,1.449,1111122 
TCOON,ioos:station:TCOON:003:1,2017-06-13T22:18:00Z,26.8015,-97.4706,1.461,1111122 
TCOON,ioos:station:TCOON:003:1,2017-06-13T23:18:00Z,26.8015,-97.4706,1.467,1111122 
TCOON,ioos:station:TCOON:003:1,2017-06-14T00:18:00Z,26.8015,-97.4706,1.485,1111122 
TCOON,ioos:station:TCOON:003:1,2017-06-14T01:18:00Z,26.8015,-97.4706,1.499,1111122 
TCOON,ioos:station:TCOON:003:1,2017-06-14T03:18:00Z,26.8015,-97.4706,1.506,1111122 
TCOON,ioos:station:TCOON:003:1,2017-06-14T04:18:00Z,26.8015,-97.4706,1.497,1111122 
TCOON,ioos:station:TCOON:003:1,2017-06-14T05:18:00Z,26.8015,-97.4706,1.492,1111122 
TCOON,ioos:station:TCOON:003:1,2017-06-14T06:18:00Z,26.8015,-97.4706,1.494,1111122 
TCOON,ioos:station:TCOON:003:1,2017-06-14T07:18:00Z,26.8015,-97.4706,1.494,1111122 
TCOON,ioos:station:TCOON:003:1,2017-06-14T08:18:00Z,26.8015,-97.4706,1.499,1111122 
TCOON,ioos:station:TCOON:003:1,2017-06-14T09:18:00Z,26.8015,-97.4706,1.493,1111122 
TCOON,ioos:station:TCOON:003:1,2017-06-14T10:18:00Z,26.8015,-97.4706,1.492,1111122 
TCOON,ioos:station:TCOON:003:1,2017-06-14T11:18:00Z,26.8015,-97.4706,1.483,1111122 
TCOON,ioos:station:TCOON:003:1,2017-06-14T12:18:00Z,26.8015,-97.4706,1.458,1111122 
TCOON,ioos:station:TCOON:003:1,2017-06-14T13:18:00Z,26.8015,-97.4706,1.449,1111122 
TCOON,ioos:station:TCOON:003:1,2017-06-14T14:18:00Z,26.8015,-97.4706,1.445,1111122 
TCOON,ioos:station:TCOON:003:1,2017-06-14T15:18:00Z,26.8015,-97.4706,1.452,1111122 
TCOON,ioos:station:TCOON:003:1,2017-06-14T16:18:00Z,26.8015,-97.4706,1.466,1111122 
TCOON,ioos:station:TCOON:003:1,2017-06-14T17:18:00Z,26.8015,-97.4706,1.479,1111122 
TCOON,ioos:station:TCOON:003:1,2017-06-14T18:18:00Z,26.8015,-97.4706,1.486,1111122 
TCOON,ioos:station:TCOON:003:1,2017-06-14T19:18:00Z,26.8015,-97.4706,1.496,1111122 
TCOON,ioos:station:TCOON:003:1,2017-06-14T20:18:00Z,26.8015,-97.4706,1.502,1111122 
TCOON,ioos:station:TCOON:003:1,2017-06-14T21:18:00Z,26.8015,-97.4706,1.505,1111122 
TCOON,ioos:station:TCOON:003:1,2017-06-14T22:18:00Z,26.8015,-97.4706,1.506,1111122 
TCOON,ioos:station:TCOON:003:1,2017-06-14T23:18:00Z,26.8015,-97.4706,1.504,1111122 
TCOON,ioos:station:TCOON:003:1,2017-06-15T00:18:00Z,26.8015,-97.4706,1.504,1111122 
TCOON,ioos:station:TCOON:003:1,2017-06-15T01:18:00Z,26.8015,-97.4706,1.493,1111122 
TCOON,ioos:station:TCOON:003:1,2017-06-15T02:18:00Z,26.8015,-97.4706,1.484,1111122 